This is the latest recevied weather packets stored in our database for station/object 4S6DRJ-13. If no packets are shown the sender has not sent any weather packets the latest 10 day(s).
| Time | Temp. | Humidity | Pressure | Rain* | Wind** | Luminosity | Snow |
|---|---|---|---|---|---|---|---|
| 1787593244 | 27.78° C | 84% | 1011.8 hPa | 0.51 mm | 0.89 m/s, 276° | 0 W/m² | - |
| 1787593184 | 27.78° C | 84% | 1011.9 hPa | 0.51 mm | 1.34 m/s, 242° | 0 W/m² | - |
| 1787593123 | 27.78° C | 84% | 1011.7 hPa | 0.51 mm | 0.45 m/s, 244° | 0 W/m² | - |
| 1787593062 | 27.78° C | 84% | 1011.8 hPa | 0.51 mm | 1.79 m/s, 244° | 0 W/m² | - |
| 1787593001 | 27.78° C | 85% | 1011.9 hPa | 0.51 mm | 0.89 m/s, 253° | 0 W/m² | - |
| 1787592939 | 27.78° C | 85% | 1011.7 hPa | 0.51 mm | 1.34 m/s, 258° | 0 W/m² | - |
| 1787592879 | 27.78° C | 85% | 1011.8 hPa | 0.51 mm | 1.34 m/s, 238° | 0 W/m² | - |
| 1787592817 | 27.78° C | 85% | 1011.9 hPa | 0.51 mm | 2.68 m/s, 199° | 0 W/m² | - |
| 1787592756 | 27.78° C | 85% | 1011.8 hPa | 0.51 mm | 2.24 m/s, 220° | 0 W/m² | - |
| 1787592695 | 27.78° C | 85% | 1012 hPa | 0.51 mm | 2.24 m/s, 235° | 0 W/m² | - |
| 1787592634 | 27.78° C | 86% | 1011.8 hPa | 0.51 mm | 0.45 m/s, 229° | 0 W/m² | - |
| 1787592573 | 27.78° C | 86% | 1011.9 hPa | 0.51 mm | 1.79 m/s, 189° | 0 W/m² | - |
| 1787592512 | 27.78° C | 86% | 1011.9 hPa | 0.51 mm | 0.89 m/s, 205° | 0 W/m² | - |
| 1787592451 | 27.78° C | 86% | 1011.7 hPa | 0.51 mm | 1.79 m/s, 187° | 0 W/m² | - |
| 1787592390 | 27.78° C | 86% | 1011.9 hPa | 0.51 mm | 0.89 m/s, 186° | 0 W/m² | - |
| 1787592329 | 27.78° C | 87% | 1011.6 hPa | 0.51 mm | 0.45 m/s, 289° | 0 W/m² | - |
| 1787592268 | 27.78° C | 87% | 1011.8 hPa | 0.51 mm | 0.89 m/s, 219° | 0 W/m² | - |
| 1787592207 | 27.78° C | 87% | 1011.6 hPa | 0.51 mm | 1.79 m/s, 258° | 0 W/m² | - |
| 1787592146 | 27.78° C | 87% | 1011.7 hPa | 0.51 mm | 1.34 m/s, 61° | 0 W/m² | - |
| 1787592085 | 27.78° C | 87% | 1012.1 hPa | 0.51 mm | 0.89 m/s, 196° | 0 W/m² | - |
| 1787592024 | 27.78° C | 87% | 1011.7 hPa | 0.51 mm | 0.89 m/s, 218° | 0 W/m² | - |
| 1787591964 | 27.78° C | 87% | 1011.7 hPa | 0.51 mm | 1.34 m/s, 127° | 0 W/m² | - |
| 1787591902 | 27.78° C | 86% | 1011.8 hPa | 0.51 mm | 1.79 m/s, 227° | 0 W/m² | - |
| 1787591842 | 27.78° C | 86% | 1011.6 hPa | 0.51 mm | 0.89 m/s, 175° | 0 W/m² | - |
| 1787591781 | 27.78° C | 86% | 1011.7 hPa | 0.51 mm | 2.68 m/s, 114° | 0 W/m² | - |
* Rain latest hour (hover to see other rain measurements)
** Current wind speed in m/s (hover to see current wind gust speed)